This demonstration page uses our WeatherBlox Daily Observations layout. Learn more.

Left ArrowRight Arrow

39.08367, -84.50855

Hourly Observations for July 25, 2017

Temp ( °F °C ) Dew Point ( °F °C ) Humidity (%) Winds ( mph kmh ) Pressure ( in mb ) Visibility ( mi km ) Precip ( " mm )
12:53 am 00:53 Clear 67 19.4 62 16.7 84 84 NE 6 9 30.09 1019 10 16.0934 N/A
1:53 am 01:53 Clear 66 18.9 61 16.1 84 84 NE 5 7 30.1 1019 10 16.0934 N/A
2:53 am 02:53 Clear 65 18.3 61 16.1 87 87 NE 6 9 30.11 1020 10 16.0934 N/A
3:53 am 03:53 Clear 63 17.2 61 16.1 93 93 N N/A 30.11 1020 10 16.0934 N/A
4:53 am 04:53 Clear 62 16.7 61 16.1 96 96 N N/A 30.13 1020 10 16.0934 N/A
5:53 am 05:53 Clear 61 16.1 61 16.1 100 100 N N/A 30.15 1021 10 16.0934 N/A
6:53 am 06:53 Sunny with Patchy Fog 60 15.6 60 15.6 100 100 N N/A 30.16 1021 10 16.0934 N/A
7:53 am 07:53 Sunny 64 17.8 62 16.7 93 93 N N/A 30.18 1022 10 16.0934 N/A
8:53 am 08:53 Sunny 68 20 63 17.2 84 84 NE 6 9 30.2 1023 10 16.0934 N/A
9:53 am 09:53 Sunny 71 21.7 61 16.1 71 71 ENE 9 15 30.19 1022 10 16.0934 N/A
10:53 am 10:53 Sunny 73 22.8 61 16.1 66 66 ENE 9 15 30.19 1022 10 16.0934 N/A
11:53 am 11:53 Sunny 75 23.9 60 15.6 60 60 NE 8 13 30.18 1022 10 16.0934 N/A
12:53 pm 12:53 Sunny 77 25 61 16.1 58 58 ENE 13 20 30.18 1022 10 16.0934 N/A
1:53 pm 13:53 Sunny 79 26.1 62 16.7 56 56 ENE 6 9 30.17 1022 10 16.0934 N/A
2:53 pm 14:53 Sunny 79 26.1 60 15.6 52 52 NE 8 13 30.16 1021 10 16.0934 N/A
3:53 pm 15:53 Sunny 81 27.2 63 17.2 54 54 ENE 10 17 30.16 1022 10 16.0934 N/A
4:53 pm 16:53 Sunny 80 26.7 63 17.2 56 56 VRB 7 11 30.16 1022 10 16.0934 N/A
5:53 pm 17:53 Sunny 80 26.7 64 17.8 58 58 ENE 8 13 30.14 1021 10 16.0934 N/A
6:53 pm 18:53 Sunny 79 26.1 63 17.2 58 58 NE 8 13 30.15 1021 10 16.0934 N/A
7:53 pm 19:53 Sunny 76 24.4 63 17.2 64 64 ENE 8 13 30.15 1021 10 16.0934 N/A
8:53 pm 20:53 Sunny 71 21.7 63 17.2 76 76 ENE 5 7 30.16 1021 10 16.0934 N/A
9:53 pm 21:53 Clear 69 20.6 64 17.8 84 84 N N/A 30.15 1021 10 16.0934 N/A
10:53 pm 22:53 Clear 67 19.4 64 17.8 91 91 NNE 3 6 30.17 1022 10 16.0934 N/A
11:53 pm 23:53 Clear 64 17.8 62 16.7 93 93 N N/A 30.19 1022 10 16.0934 N/A

Powered by AerisWeather